Temp
71 74 72 71 61 56 50 58 63 65 67 71 71 68 68 70 71 62 75 78 76 76 76 78 79 79 79 79 79 78 78 78 79 79 79 79 79 79 78 78 79 79 80 80 80 80 80 80 80
72 76 72 63 54 51 56 63 62 64 71 75 72 71 71 69 76 76 75 78 78 76 76 76 79 79 79 79 78 78 78 78 78 78 78 78 78 78 78 78 79 80 80 80 80 80 80 80 80
76 73 65 56 48 51 57 64 66 71 73 71 70 76 73 72 79 77 77 78 77 74 75 76 78 79 79 79 78 78 78 78 78 78 78 78 78 78 78 78 78 80 80 80 80 80 79 79 79
72 70 61 53 49 57 59 63 70 73 76 75 72 71 76 80 78 78 79 78 75 74 75 78 78 78 79 78 78 78 78 78 78 78 78 78 78 77 77 77 78 79 80 80 80 79 79 79 78
67 59 52 47 52 59 65 65 68 70 74 73 74 70 71 80 79 77 77 78 74 73 74 77 78 78 79 79 78 78 78 78 78 78 78 78 77 77 77 77 78 79 79 79 79 79 78 77 77
60 57 47 46 54 61 64 67 66 67 72 74 74 72 72 79 77 76 77 74 75 73 74 78 78 78 78 78 78 77 77 77 77 78 78 77 77 77 77 77 78 78 79 79 79 78 77 76 76
59 49 44 47 53 58 63 66 62 64 64 71 79 69 72 77 78 76 76 75 74 74 75 78 78 77 78 78 77 77 77 77 77 77 77 77 77 77 77 77 77 77 77 77 77 77 77 76 76
59 54 48 49 51 55 63 66 62 66 67 76 78 68 67 78 76 76 74 72 72 73 75 77 79 78 74 75 77 77 77 77 77 77 77 77 77 77 77 76 77 77 77 77 77 77 76 76 76
59 48 45 51 52 54 62 59 66 71 69 71 74 75 78 78 73 71 70 69 70 72 75 77 79 79 76 74 76 77 78 77 77 77 77 76 74 75 76 76 76 77 77 77 77 76 76 76 76
54 45 50 56 57 56 60 59 62 66 67 66 71 76 78 76 71 70 69 68 68 70 73 76 77 78 78 77 74 74 74 74 74 74 74 72 72 72 74 75 77 77 77 77 76 76 76 76 73
50 49 54 58 61 62 61 62 65 63 61 66 68 72 75 76 73 69 70 71 71 71 72 74 74 76 76 75 75 75 74 74 73 73 73 72 72 71 72 71 73 73 75 73 74 74 74 73 72
48 57 58 59 62 59 60 64 62 65 68 72 73 72 73 72 71 70 69 70 70 71 72 74 73 73 74 75 76 77 76 76 75 75 74 72 71 70 70 70 70 70 71 71 71 72 72 72 72
49 54 58 62 60 59 61 61 61 61 69 71 71 70 72 70 69 69 70 70 69 69 72 72 72 72 74 73 75 75 75 76 76 75 74 72 71 70 69 69 69 69 70 70 70 71 71 71 71
56 54 55 58 59 58 58 60 61 65 70 69 69 69 67 70 71 69 69 70 69 71 71 72 72 72 73 73 73 74 75 76 74 72 73 72 72 71 70 69 69 69 69 70 71 71 71 71 71
53 49 53 56 57 58 59 58 58 64 67 67 68 68 70 69 70 70 73 70 70 70 71 70 71 72 72 72 72 72 73 73 71 70 71 72 71 70 70 69 68 68 69 70 70 71 71 70 71
49 45 40 52 56 60 58 49 62 62 61 62 64 65 66 67 68 69 69 68 68 68 70 70 75 72 72 73 72 73 71 70 72 72 70 72 72 71 69 69 68 70 69 70 70 70 70 69 70
42 38 39 48 54 55 53 48 59 63 61 60 60 61 63 63 66 65 68 68 69 68 67 68 71 72 72 72 73 72 71 70 70 70 71 73 73 72 71 70 71 71 70 70 70 70 70 69 69
37 38 43 44 52 51 49 50 56 60 58 59 59 59 59 60 63 65 65 65 65 66 66 67 70 71 71 70 69 69 69 70 69 70 71 72 73 73 71 70 71 71 71 71 70 70 69 69 69
47 43 43 48 56 50 49 49 54 57 56 56 58 58 59 60 63 64 64 64 62 62 63 65 65 67 68 67 67 67 68 68 68 70 71 72 72 73 71 71 71 70 71 70 71 70 70 69 68
47 43 42 48 53 49 48 48 53 54 55 57 58 59 60 59 61 63 63 64 62 61 61 62 64 65 68 70 65 67 65 66 67 68 69 70 71 72 71 70 70 70 70 70 69 68 68 68 68
45 42 43 45 50 49 46 43 48 55 54 58 58 58 59 59 60 61 62 62 62 60 60 61 64 65 66 66 62 61 61 63 65 67 67 69 71 71 70 71 70 71 70 69 70 68 67 67 68
42 50 52 49 42 37 47 37 45 49 52 54 57 56 57 59 59 58 60 59 61 63 60 60 60 64 67 64 65 63 64 62 63 64 64 67 70 69 69 68 68 70 71 70 70 68 68 66 66
47 52 50 48 41 35 40 34 39 45 47 52 55 57 58 59 58 59 60 60 61 62 61 61 60 60 62 64 67 63 60 61 60 61 63 63 65 68 69 70 69 69 68 70 70 69 67 67 67
56 49 43 38 36 29 39 37 38 43 49 52 56 57 58 59 59 59 60 59 60 61 61 59 59 60 60 61 61 62 61 60 59 58 60 61 62 63 65 68 68 69 69 69 70 68 67 67 67
49 39 29 28 29 33 42 36 40 48 54 53 53 54 55 57 56 57 57 58 56 55 55 56 58 58 58 60 60 60 60 59 59 59 59 58 58 59 62 65 65 67 68 69 70 68 68 69 67
45 42 31 25 24 33 40 32 40 50 52 52 53 52 54 53 55 54 56 56 56 55 55 56 56 56 56 58 58 59 59 60 58 58 58 58 58 60 61 63 63 64 66 67 68 69 67 68 67
49 43 49 38 32 27 34 38 46 49 49 51 51 52 51 52 52 53 55 55 55 55 54 56 57 58 60 61 59 58 57 57 58 58 58 59 59 61 61 62 63 64 65 66 66 65 67 68 67
52 54 39 37 26 23 29 31 35 43 45 47 48 49 50 51 53 54 54 55 56 56 56 56 58 56 58 58 59 60 59 58 58 57 58 58 59 60 61 62 62 63 64 65 65 64 66 66 67
46 40 41 39 36 27 29 30 41 42 43 45 47 50 48 49 51 53 55 56 56 57 58 58 59 59 59 59 59 57 58 58 58 58 59 59 59 59 60 61 62 62 63 64 63 63 65 65 64
50 44 44 32 30 34 32 30 45 44 47 46 47 51 52 51 52 54 55 55 56 57 58 57 60 60 64 61 60 59 59 59 57 59 59 59 59 59 61 61 62 63 63 63 63 63 65 65 65
MSLP
1009.33 1008.80 1008.61 1008.86 1010.15 1010.52 1010.07 1009.27 1008.42 1007.72 1007.25 1006.29 1006.29 1006.28 1006.40 1006.18 1006.31 1007.16 1006.44 1006.94 1007.24 1007.74 1008.34 1008.93 1009.23 1009.41 1009.60 1009.61 1009.75 1010.15 1010.55 1010.94 1011.34 1011.57 1011.84 1012.13 1012.48 1012.84 1013.24 1013.55 1013.81 1013.94 1013.99 1014.10 1014.27 1014.37 1014.60 1014.78 1014.80
1009.38 1009.01 1009.10 1009.91 1010.81 1010.84 1010.02 1008.94 1008.51 1007.86 1006.84 1006.05 1005.80 1005.88 1006.08 1006.31 1006.00 1006.16 1006.52 1006.82 1007.38 1007.79 1008.41 1009.02 1009.18 1009.36 1009.86 1010.14 1010.17 1010.38 1010.47 1010.84 1011.26 1011.69 1012.14 1012.43 1012.68 1012.99 1013.31 1013.47 1013.72 1013.84 1014.08 1014.22 1014.32 1014.46 1014.66 1014.82 1014.96
1009.45 1009.59 1010.39 1011.21 1011.54 1010.98 1009.84 1008.89 1008.56 1007.70 1006.53 1006.14 1005.85 1005.52 1005.78 1006.02 1005.84 1006.01 1006.09 1006.84 1007.44 1008.08 1008.38 1008.82 1009.42 1009.53 1009.64 1010.02 1010.37 1010.56 1010.79 1010.90 1011.18 1011.61 1012.14 1012.62 1012.98 1013.23 1013.36 1013.44 1013.65 1013.90 1014.07 1014.30 1014.48 1014.61 1014.72 1014.87 1015.09
1009.98 1010.44 1011.76 1011.77 1011.61 1010.64 1009.72 1008.86 1008.08 1007.80 1006.34 1005.87 1005.87 1005.88 1005.73 1005.59 1005.75 1005.86 1006.15 1006.59 1007.44 1008.18 1008.54 1008.94 1009.31 1009.56 1009.85 1010.13 1010.44 1010.75 1010.92 1011.16 1011.30 1011.65 1012.12 1012.42 1012.90 1013.31 1013.44 1013.57 1013.76 1013.87 1014.12 1014.37 1014.57 1014.75 1014.92 1015.08 1015.33
1010.57 1011.40 1012.30 1012.52 1011.60 1010.49 1009.52 1008.86 1008.34 1008.02 1007.04 1006.22 1005.83 1005.94 1005.72 1005.45 1005.73 1006.10 1006.46 1006.85 1007.36 1008.21 1008.60 1008.98 1009.51 1009.82 1009.92 1010.38 1010.76 1010.98 1011.14 1011.31 1011.67 1011.95 1012.21 1012.53 1012.86 1013.25 1013.54 1013.66 1013.83 1013.96 1014.02 1014.26 1014.45 1014.64 1014.91 1015.10 1015.28
1011.43 1012.26 1013.08 1013.07 1011.70 1010.55 1009.58 1008.93 1008.50 1008.26 1007.62 1006.63 1006.16 1005.93 1005.80 1005.30 1005.67 1006.12 1006.56 1007.17 1007.77 1008.29 1008.76 1009.17 1009.63 1010.08 1010.30 1010.47 1010.92 1011.27 1011.50 1011.62 1011.54 1011.77 1012.10 1012.54 1012.88 1013.10 1013.32 1013.56 1013.73 1013.93 1014.11 1014.19 1014.44 1014.64 1014.70 1014.93 1015.08
1011.37 1012.88 1013.14 1012.98 1011.96 1010.57 1009.68 1009.05 1008.81 1008.47 1008.09 1007.25 1006.66 1006.34 1006.01 1005.72 1005.65 1006.00 1006.56 1007.02 1007.52 1008.17 1008.61 1009.04 1009.48 1010.19 1010.41 1010.72 1010.98 1011.39 1011.77 1011.73 1011.85 1011.84 1011.89 1012.16 1012.71 1013.18 1013.36 1013.41 1013.62 1013.73 1013.96 1014.27 1014.47 1014.69 1014.87 1014.90 1015.01
1011.67 1012.95 1013.42 1012.88 1012.16 1010.73 1009.74 1009.31 1008.94 1008.68 1007.92 1007.38 1006.79 1006.41 1006.23 1005.70 1005.91 1006.61 1007.01 1007.59 1007.83 1008.04 1008.55 1009.04 1009.32 1009.92 1010.29 1010.81 1011.18 1011.36 1011.68 1012.00 1011.96 1012.01 1012.10 1012.02 1012.20 1012.66 1013.16 1013.39 1013.52 1013.76 1013.82 1014.09 1014.38 1014.65 1014.87 1015.05 1015.00
1011.61 1012.93 1013.17 1012.70 1011.74 1010.84 1010.00 1009.69 1009.16 1008.40 1008.26 1007.74 1006.97 1006.65 1005.97 1005.86 1006.50 1007.15 1007.59 1008.20 1008.54 1008.57 1008.63 1008.89 1009.24 1009.54 1010.21 1010.69 1011.09 1011.42 1011.70 1012.00 1012.22 1012.26 1012.42 1012.57 1012.53 1012.64 1012.86 1013.21 1013.43 1013.64 1013.88 1014.07 1014.32 1014.52 1014.72 1014.94 1014.90
1011.92 1012.94 1012.69 1011.70 1011.06 1010.78 1010.26 1010.04 1009.44 1008.97 1008.21 1007.83 1007.42 1006.61 1006.57 1006.07 1007.15 1007.47 1007.62 1007.86 1008.24 1008.51 1008.40 1008.56 1008.99 1009.27 1009.75 1010.26 1010.77 1011.21 1011.60 1012.08 1012.29 1012.32 1012.46 1012.65 1013.00 1012.90 1013.04 1013.24 1013.38 1013.64 1013.86 1014.15 1014.28 1014.42 1014.47 1014.60 1014.88
1012.32 1012.48 1011.88 1011.19 1010.77 1010.69 1010.36 1009.78 1009.37 1009.06 1008.37 1008.00 1007.75 1006.96 1006.99 1006.60 1007.18 1007.65 1007.33 1007.31 1007.13 1007.89 1008.31 1008.36 1008.77 1009.19 1009.44 1009.96 1010.19 1010.82 1011.20 1011.72 1012.28 1012.28 1012.41 1012.57 1012.84 1013.19 1013.20 1013.38 1013.50 1013.62 1013.93 1014.19 1014.35 1014.32 1014.41 1014.54 1014.68
1012.10 1011.57 1011.38 1010.85 1010.24 1010.28 1010.00 1009.34 1009.23 1008.89 1008.21 1007.26 1007.04 1007.19 1007.11 1006.73 1007.01 1007.32 1007.43 1007.21 1007.37 1007.77 1008.14 1008.35 1008.82 1009.10 1009.56 1009.54 1009.98 1010.25 1010.77 1011.02 1011.46 1012.10 1012.43 1012.40 1012.61 1012.81 1013.06 1013.43 1013.68 1013.74 1013.93 1014.19 1014.36 1014.48 1014.35 1014.50 1014.59
1011.63 1011.37 1011.06 1010.41 1010.20 1009.81 1009.36 1009.16 1008.74 1008.50 1007.61 1006.94 1006.75 1007.04 1006.96 1006.54 1006.86 1007.11 1007.30 1006.89 1006.98 1007.25 1007.68 1007.59 1008.42 1008.65 1009.02 1009.36 1009.71 1010.01 1010.32 1010.40 1010.70 1011.28 1011.94 1012.28 1012.44 1012.60 1012.66 1013.00 1013.22 1013.69 1013.96 1014.12 1014.18 1014.34 1014.39 1014.37 1014.49
1011.48 1011.44 1011.12 1010.54 1010.00 1009.53 1009.19 1008.70 1008.53 1008.03 1007.26 1007.06 1006.99 1006.75 1006.93 1007.00 1006.58 1006.73 1006.94 1007.06 1007.02 1006.87 1007.04 1007.20 1007.97 1008.38 1008.84 1008.94 1008.99 1009.29 1009.63 1010.09 1010.79 1011.42 1011.78 1012.30 1012.52 1012.44 1012.53 1012.86 1012.79 1013.15 1013.67 1013.94 1014.12 1014.16 1014.38 1014.20 1014.27
1011.32 1011.50 1011.08 1010.45 1009.65 1009.32 1008.98 1008.53 1008.51 1007.88 1007.51 1007.46 1007.52 1007.37 1006.98 1006.82 1006.88 1007.02 1006.39 1006.55 1006.51 1006.54 1006.78 1006.82 1007.50 1008.14 1008.45 1008.63 1009.06 1009.48 1009.64 1009.85 1010.36 1010.46 1012.26 1012.56 1012.40 1012.55 1012.69 1012.90 1012.84 1013.26 1013.22 1013.76 1014.10 1014.04 1014.04 1014.25 1014.24
1011.90 1011.99 1011.61 1010.22 1009.58 1009.00 1009.06 1008.73 1008.02 1008.05 1008.20 1008.47 1008.16 1007.98 1007.56 1006.80 1006.62 1006.33 1006.50 1006.49 1006.52 1006.66 1006.32 1006.32 1006.78 1007.22 1007.78 1007.88 1008.18 1008.76 1009.29 1009.52 1009.60 1009.06 1010.53 1011.34 1012.10 1011.71 1012.14 1012.50 1012.61 1012.85 1013.19 1013.28 1013.81 1013.97 1014.16 1014.12 1014.14
1013.11 1012.81 1012.19 1011.10 1009.74 1009.62 1009.63 1009.45 1008.58 1008.08 1008.13 1008.20 1008.29 1008.02 1007.57 1007.02 1006.42 1006.26 1006.31 1006.42 1006.34 1006.35 1006.45 1006.24 1006.37 1006.62 1006.89 1007.43 1007.82 1008.11 1008.60 1009.16 1009.66 1009.90 1010.46 1010.27 1010.04 1010.82 1011.53 1011.78 1012.19 1011.79 1012.77 1013.10 1013.35 1013.51 1014.00 1013.91 1013.88
1013.30 1013.05 1012.44 1011.80 1010.52 1010.24 1010.25 1010.11 1009.34 1008.64 1008.53 1008.33 1008.18 1007.86 1007.70 1007.42 1006.60 1006.06 1006.02 1006.11 1006.04 1005.95 1005.98 1006.44 1006.02 1006.00 1006.46 1007.16 1007.67 1008.09 1008.57 1008.79 1008.93 1009.62 1009.61 1009.79 1009.24 1009.38 1010.35 1010.77 1011.10 1012.01 1012.26 1012.31 1013.09 1013.22 1013.90 1013.84 1013.67
1012.66 1012.73 1012.46 1011.52 1010.38 1010.82 1010.30 1010.16 1009.62 1008.92 1008.68 1008.43 1008.30 1008.03 1007.59 1007.25 1006.16 1005.84 1005.81 1005.64 1005.71 1005.79 1005.97 1005.80 1005.97 1005.75 1006.21 1006.82 1007.62 1008.18 1008.41 1008.49 1008.85 1008.72 1008.77 1009.28 1008.82 1008.77 1009.96 1010.70 1011.13 1011.33 1010.90 1011.17 1012.60 1012.58 1013.30 1013.60 1013.38
1012.47 1012.53 1012.10 1011.22 1010.22 1010.74 1010.04 1009.95 1009.25 1009.16 1008.46 1008.02 1007.91 1007.83 1007.28 1006.90 1006.39 1005.98 1005.61 1005.41 1005.26 1005.40 1005.61 1005.71 1005.59 1005.84 1005.56 1005.83 1006.59 1007.02 1007.58 1008.15 1008.41 1008.70 1008.67 1008.57 1008.73 1009.05 1009.26 1009.84 1010.96 1011.37 1012.12 1011.64 1011.21 1012.11 1012.70 1013.36 1013.29
1011.82 1012.02 1011.73 1011.46 1010.36 1010.18 1010.07 1009.74 1009.12 1008.38 1007.99 1007.63 1007.37 1007.08 1006.94 1006.80 1006.48 1005.90 1005.65 1005.38 1005.10 1005.09 1004.88 1004.89 1004.92 1005.08 1005.50 1005.72 1006.38 1007.27 1007.65 1008.12 1008.34 1008.57 1008.44 1008.43 1008.61 1008.77 1009.15 1009.19 1009.67 1011.88 1011.30 1010.70 1010.78 1010.76 1011.97 1012.97 1013.07
1011.14 1010.60 1010.80 1011.04 1011.32 1011.16 1010.41 1009.41 1009.10 1008.38 1007.97 1007.44 1006.95 1006.98 1006.62 1006.22 1005.73 1005.72 1005.58 1005.10 1004.82 1004.36 1004.30 1004.64 1004.79 1005.04 1004.82 1005.18 1005.71 1006.23 1006.58 1007.24 1007.26 1007.65 1007.98 1008.14 1008.55 1009.10 1009.44 1010.00 1010.68 1010.90 1010.28 1010.12 1010.12 1010.24 1010.56 1011.33 1012.73
1010.07 1010.01 1010.68 1011.02 1011.38 1011.34 1011.00 1010.57 1008.85 1008.60 1008.03 1007.34 1006.74 1006.28 1005.94 1005.70 1005.43 1005.26 1004.85 1004.52 1004.22 1004.14 1003.96 1003.80 1004.08 1004.50 1004.95 1004.69 1004.72 1005.32 1006.15 1006.55 1007.09 1007.54 1008.06 1008.30 1008.44 1008.57 1008.79 1009.14 1009.56 1009.50 1009.69 1009.80 1009.46 1009.66 1010.28 1011.60 1012.36
1009.34 1009.93 1010.66 1011.30 1011.88 1011.64 1010.87 1010.38 1008.90 1008.38 1007.46 1006.80 1006.28 1006.02 1005.89 1005.76 1005.30 1004.85 1004.25 1004.14 1003.77 1003.34 1003.39 1003.39 1003.44 1003.66 1004.08 1004.53 1004.70 1004.96 1005.44 1006.28 1007.10 1007.65 1008.12 1008.52 1008.76 1008.64 1008.47 1008.64 1008.80 1009.00 1009.08 1009.00 1009.06 1009.40 1009.44 1010.69 1011.38
1009.37 1010.44 1011.58 1011.84 1012.14 1010.76 1010.11 1009.80 1008.40 1007.48 1006.82 1006.70 1006.83 1006.63 1006.32 1005.98 1005.52 1004.78 1004.38 1004.09 1003.60 1003.19 1003.13 1003.21 1003.23 1003.13 1003.59 1004.10 1004.54 1004.78 1005.20 1005.80 1006.44 1006.89 1007.44 1008.26 1008.66 1008.71 1008.50 1008.44 1008.51 1008.52 1008.47 1008.64 1009.04 1009.47 1009.72 1010.04 1010.43
1008.89 1009.89 1011.24 1011.06 1011.67 1011.10 1010.54 1009.30 1007.72 1006.82 1006.74 1006.74 1007.09 1006.96 1006.56 1006.06 1005.48 1004.93 1004.66 1004.33 1003.21 1003.01 1003.00 1002.97 1003.02 1003.14 1003.63 1003.90 1004.03 1004.49 1004.76 1005.26 1006.10 1006.43 1006.83 1007.16 1007.63 1007.96 1007.97 1008.08 1008.20 1008.32 1008.46 1008.57 1008.89 1009.12 1009.28 1009.58 1009.71
1008.20 1009.07 1009.40 1010.61 1011.24 1011.21 1010.30 1008.98 1007.83 1007.09 1006.87 1007.05 1007.40 1007.06 1006.80 1006.34 1005.72 1005.20 1004.63 1004.38 1004.20 1003.03 1002.78 1002.75 1002.88 1002.80 1003.29 1003.80 1004.03 1004.50 1004.52 1004.83 1005.22 1005.59 1006.05 1006.58 1006.92 1007.27 1007.68 1007.95 1008.10 1008.24 1008.40 1008.52 1008.50 1008.83 1009.05 1009.32 1009.41
1007.89 1008.51 1009.71 1011.10 1012.06 1011.21 1009.91 1009.36 1008.32 1007.64 1007.51 1007.36 1007.12 1007.01 1006.86 1006.40 1005.88 1005.12 1004.82 1004.45 1004.13 1003.53 1002.95 1002.66 1002.89 1002.92 1003.41 1003.74 1003.43 1003.80 1003.61 1004.19 1004.39 1005.30 1005.70 1006.36 1006.59 1006.84 1007.09 1007.44 1007.56 1007.58 1007.65 1007.78 1007.90 1008.08 1008.19 1008.43 1008.71
1008.59 1009.28 1010.28 1011.38 1011.94 1011.52 1010.14 1008.89 1007.88 1007.80 1008.04 1008.04 1007.76 1007.33 1007.03 1006.44 1006.00 1005.08 1004.39 1004.15 1003.85 1003.76 1003.50 1002.60 1002.82 1003.20 1003.56 1003.73 1003.79 1003.92 1003.89 1003.61 1004.22 1004.62 1004.95 1005.56 1006.10 1006.47 1006.76 1006.79 1006.96 1007.09 1007.20 1007.32 1007.46 1007.55 1007.73 1007.95 1008.26
1009.56 1009.92 1010.86 1011.76 1012.08 1011.61 1010.99 1008.86 1008.02 1008.11 1008.08 1008.10 1007.86 1007.50 1006.82 1006.42 1005.80 1005.06 1004.04 1004.01 1004.06 1003.61 1003.54 1003.86 1002.34 1002.54 1002.45 1002.53 1003.66 1004.12 1003.90 1004.29 1004.92 1004.26 1004.40 1005.00 1005.40 1005.88 1006.18 1006.51 1006.80 1006.90 1006.87 1006.91 1007.24 1007.42 1007.58 1007.72 1007.86
Wind_Speed
7 9 2 5 4 5 2 5 1 5 4 3 3 1 2 2 4 5 3 8 8 14 10 12 16 17 17 17 17 16 16 18 18 19 19 18 17 16 15 14 13 14 14 13 11 11 10 10 10
5 5 5 2 5 2 3 2 4 1 5 7 4 1 4 2 2 0 3 6 11 13 10 9 16 18 18 16 17 17 18 18 18 18 17 16 16 15 15 14 13 14 13 13 12 11 9 9 9
5 4 4 4 3 4 3 2 2 6 5 1 3 4 2 2 2 3 3 10 11 10 10 11 14 16 19 18 17 18 18 19 19 18 17 16 15 14 14 13 13 13 13 12 11 10 9 8 7
3 4 5 4 4 5 3 3 5 4 6 4 1 3 2 2 2 2 10 15 13 9 8 12 15 15 17 19 18 18 19 19 20 20 18 17 16 13 12 12 11 11 11 11 10 9 8 6 5
4 3 3 1 5 4 4 3 5 4 6 3 3 3 1 4 4 6 9 12 14 10 7 11 13 14 16 17 17 17 18 19 18 18 17 16 15 13 11 11 11 10 11 10 10 9 7 6 5
4 3 4 4 6 2 4 5 5 3 5 7 3 5 4 2 4 7 9 9 10 10 7 10 12 12 13 15 15 15 16 16 19 18 17 15 14 13 13 12 11 10 10 10 9 8 7 6 5
7 5 4 3 4 6 2 1 2 4 3 5 5 3 4 5 2 8 8 10 12 11 11 11 11 9 12 13 15 14 14 15 16 17 18 18 16 13 12 12 11 11 9 8 8 7 6 6 4
5 5 5 4 4 7 1 3 2 5 6 4 2 4 4 8 6 6 7 6 8 11 11 11 13 10 7 7 13 14 14 14 14 15 16 17 18 16 14 12 11 11 10 10 8 7 6 5 4
3 4 3 6 6 5 3 5 5 3 5 4 3 3 5 4 7 7 6 5 5 7 11 11 13 13 10 6 8 11 14 13 12 11 11 8 4 7 11 10 12 11 10 9 8 6 6 5 5
5 4 9 5 4 2 4 2 4 4 7 5 6 6 5 6 3 6 8 8 7 10 14 12 12 14 13 9 7 6 6 4 4 5 5 3 2 3 4 7 11 10 9 8 7 6 7 5 3
4 6 4 5 7 4 4 6 4 3 8 7 7 9 6 6 6 6 8 11 15 10 10 12 11 11 14 9 8 5 4 5 3 5 5 4 3 2 2 1 2 2 5 2 2 3 2 4 3
2 6 4 4 4 2 5 4 4 7 13 10 10 4 8 8 9 10 8 9 9 11 11 11 10 9 10 6 7 7 7 6 7 8 9 7 4 4 3 2 3 3 1 2 2 2 3 4 4
3 3 3 7 9 6 4 8 6 5 11 11 10 4 8 7 6 5 7 4 6 11 12 15 13 13 13 10 8 8 9 9 10 9 9 6 5 5 4 4 3 3 2 2 2 3 3 4 4
6 3 4 7 7 6 5 5 5 5 8 8 7 10 4 8 8 5 4 7 8 8 12 13 15 13 12 12 12 10 9 10 7 2 3 4 3 4 5 4 5 3 3 2 3 3 3 4 3
1 4 4 5 5 6 4 10 6 4 3 8 10 9 11 8 7 9 11 10 10 9 8 14 14 13 13 13 9 8 7 7 8 8 2 4 5 4 3 3 2 3 3 3 3 3 2 3 2
4 5 4 7 3 6 6 9 10 3 4 7 10 9 10 12 9 9 8 8 6 5 11 11 12 14 14 14 11 8 7 7 6 6 10 10 9 8 5 4 4 4 3 3 3 3 2 3 3
6 4 4 9 5 2 4 5 5 6 7 8 6 7 8 9 10 9 9 9 10 9 7 9 12 15 17 13 9 9 9 9 7 7 8 13 15 10 8 6 6 3 4 3 3 2 2 2 3
3 2 4 5 5 1 5 9 10 11 4 9 9 8 7 9 13 10 6 8 9 10 8 7 8 11 10 5 4 3 4 6 6 8 9 10 9 10 8 6 4 6 4 4 2 2 1 3 3
2 3 7 8 13 3 8 8 12 10 6 9 8 7 8 8 8 8 8 6 7 8 8 11 9 9 9 5 5 4 7 3 3 6 6 7 6 12 6 2 8 9 6 6 4 3 3 2 2
4 6 8 9 11 6 10 10 10 7 7 8 7 9 9 7 8 10 10 9 6 5 9 6 7 6 9 8 3 3 4 3 2 3 4 5 5 7 11 8 2 6 3 5 6 5 3 1 2
5 5 6 9 5 3 4 5 6 6 4 6 9 9 7 10 11 11 9 9 9 8 9 10 12 12 8 7 5 4 4 3 3 3 4 4 4 3 1 4 7 12 5 6 5 7 8 3 1
7 10 11 6 1 7 4 12 8 6 10 7 10 9 10 11 10 8 10 10 10 12 7 8 7 9 11 11 9 8 6 6 4 4 3 4 6 6 6 7 8 10 5 5 6 4 3 6 3
10 2 8 7 6 0 4 7 7 1 7 11 10 11 11 11 9 11 10 10 9 10 9 11 10 9 7 12 14 8 5 4 3 3 6 4 4 6 6 6 7 5 4 5 5 4 7 5 5
5 3 2 4 3 5 9 8 4 6 9 6 7 7 9 10 10 10 10 8 11 9 9 9 13 13 11 11 8 10 10 7 5 5 4 3 2 3 5 5 5 5 5 5 4 4 5 5 3
4 4 5 5 3 12 6 4 8 7 9 7 8 10 11 11 10 11 10 9 8 8 7 7 11 13 11 11 9 9 9 8 8 6 6 7 4 3 5 4 4 3 4 4 4 6 9 10 7
7 9 7 7 4 8 3 7 7 7 3 2 0 3 7 10 12 10 9 10 7 7 7 8 8 5 5 7 9 7 8 7 6 7 5 4 5 6 7 6 5 5 5 5 5 4 4 6 6
3 5 3 2 2 4 6 6 6 1 1 6 8 7 8 9 8 10 10 8 11 6 8 7 7 7 12 12 7 7 6 8 7 8 5 4 4 4 5 5 6 6 6 6 6 4 5 5 6
7 2 1 2 5 8 4 5 7 6 4 6 9 9 9 8 10 7 7 8 8 7 4 3 3 5 2 8 9 10 10 9 7 6 7 6 5 5 5 6 6 5 5 5 5 4 4 4 3
2 2 2 1 3 7 12 5 6 4 2 6 9 9 9 9 9 8 7 6 7 7 8 5 5 5 7 6 3 5 5 7 6 7 7 7 5 6 5 6 6 6 5 4 3 3 3 4 4
12 17 12 7 5 5 3 7 1 2 2 5 10 13 11 8 9 10 6 7 8 8 6 11 8 11 12 7 5 6 3 2 5 7 9 7 9 6 8 6 6 5 5 4 4 4 3 4 4
Wind_Direction
327 314 359 36 58 66 209 256 301 357 0 282 247 110 122 97 142 216 347 169 137 145 150 153 150 144 144 140 135 131 126 125 128 126 129 133 136 138 140 142 142 143 143 146 147 148 149 143 143
327 332 37 72 88 103 244 277 19 344 249 285 246 150 57 90 218 199 99 151 152 143 146 152 153 145 144 145 140 139 136 133 131 131 135 137 139 144 147 145 148 149 152 153 154 153 150 149 150
327 37 70 85 111 185 204 147 160 297 311 316 5 69 23 325 303 188 121 129 133 144 146 155 157 150 148 147 147 146 144 142 139 139 141 143 146 149 151 151 151 154 156 157 156 155 155 154 146
24 14 38 91 220 253 235 6 320 2 317 89 169 52 316 193 266 19 143 135 138 144 147 160 160 158 152 149 150 151 149 148 146 147 150 149 149 153 156 153 156 159 161 162 160 160 162 155 143
29 53 71 87 258 260 268 319 334 14 296 293 5 159 323 334 75 126 139 141 146 143 145 161 163 163 155 152 151 153 154 151 150 149 149 149 151 156 159 158 164 168 169 170 170 168 167 169 162
55 87 83 222 256 231 291 285 329 12 351 309 347 145 210 277 145 168 136 130 131 136 133 160 164 169 161 155 156 158 158 158 155 154 153 153 157 162 165 169 175 179 181 178 180 181 181 184 186
113 88 192 205 266 301 208 271 10 337 356 318 339 267 282 274 242 156 143 135 137 139 147 167 170 173 167 162 162 162 165 165 164 162 161 160 164 172 175 178 184 188 189 190 191 193 198 199 204
104 91 155 235 207 276 71 348 303 12 288 283 256 230 215 243 64 112 101 110 135 148 157 171 177 176 157 161 170 168 170 175 174 173 174 171 170 174 184 188 192 196 195 196 199 202 212 231 234
105 69 200 221 178 239 316 25 305 270 259 339 294 303 274 73 74 96 101 92 121 153 165 170 176 179 172 154 176 179 180 182 184 181 185 181 176 180 187 194 201 205 207 206 204 205 227 244 256
97 135 219 219 202 233 272 278 286 313 314 292 302 313 352 112 136 164 167 172 172 181 176 174 178 180 179 178 173 164 175 180 186 179 182 173 217 187 192 210 211 220 217 217 210 216 228 239 254
160 204 223 251 240 213 259 278 200 246 294 220 266 290 285 191 202 232 192 187 191 178 181 179 175 180 178 177 171 175 171 170 190 187 182 184 168 219 238 227 246 230 239 219 229 240 237 241 243
174 247 211 270 266 273 226 243 261 195 249 255 246 247 262 210 205 208 222 187 175 178 183 173 174 172 184 175 179 182 185 186 187 207 207 190 191 190 198 216 254 255 221 230 203 244 247 251 255
171 257 269 271 283 248 286 248 237 260 266 278 290 264 262 242 204 281 285 233 164 175 190 177 177 180 182 182 183 190 196 196 197 194 203 198 194 204 183 201 200 239 246 237 221 225 255 248 248
190 225 270 278 264 261 255 264 129 266 275 294 308 307 273 274 215 210 240 238 206 187 191 173 189 187 185 193 189 190 191 197 195 187 182 210 236 211 202 223 206 208 204 234 238 230 240 260 259
305 328 320 227 246 247 166 302 190 247 310 316 304 303 301 258 254 232 218 207 209 205 178 180 183 185 190 193 190 197 198 187 180 142 206 240 203 217 252 209 239 246 191 227 245 252 237 277 252
37 40 352 283 276 265 122 277 300 159 177 243 270 279 278 277 243 235 238 243 262 280 190 182 184 188 194 197 190 192 182 179 195 181 174 200 216 196 193 210 230 214 214 190 208 223 243 236 267
359 233 237 305 230 262 137 289 266 309 333 308 284 295 303 290 284 231 234 229 239 223 234 201 190 189 196 202 195 193 181 178 181 176 206 219 184 187 196 202 211 152 211 203 214 219 211 225 256
217 236 242 253 284 130 305 254 277 283 309 288 304 311 305 286 274 300 275 228 246 239 209 252 207 201 195 182 152 149 170 204 178 193 202 211 200 177 186 191 177 189 216 161 183 181 220 243 254
220 232 252 262 271 188 242 247 260 266 286 278 274 292 303 283 277 285 285 280 215 239 220 209 204 192 164 156 158 157 201 214 246 224 199 206 190 171 180 280 220 196 183 150 183 140 185 261 233
236 264 274 278 264 153 265 252 252 248 236 223 241 278 273 283 290 289 295 298 259 232 229 222 210 205 194 185 151 146 147 180 179 169 210 201 192 179 161 161 233 334 250 200 157 155 136 247 201
232 193 250 229 309 274 292 280 257 256 242 264 254 243 270 253 269 279 277 260 275 247 226 212 205 196 198 165 122 99 96 68 112 195 225 231 218 196 247 168 204 228 216 201 191 150 147 203 232
256 196 231 255 306 268 131 283 283 242 249 256 266 262 253 267 270 254 267 270 248 247 218 212 209 216 193 169 170 166 176 158 192 171 162 187 203 208 196 209 214 217 216 213 191 166 152 126 236
235 196 224 245 245 209 259 272 251 331 280 269 256 254 257 258 255 269 261 246 250 251 231 217 207 192 207 197 186 168 155 136 137 126 158 184 197 199 202 205 207 195 188 202 198 152 140 183 175
233 279 44 49 112 234 219 213 187 204 228 257 279 270 274 296 292 263 263 275 271 262 235 215 198 199 183 186 180 176 165 157 152 150 159 195 249 267 258 234 213 207 200 209 200 192 158 180 195
152 66 313 306 259 265 229 242 239 231 247 241 292 322 322 318 290 274 270 270 265 260 232 218 202 193 182 181 177 177 176 173 181 173 171 165 188 220 227 220 221 218 210 210 217 215 210 200 183
210 166 179 244 230 282 245 242 240 220 312 333 92 277 320 336 338 297 296 284 256 239 215 203 187 172 175 180 179 179 170 169 187 187 180 189 187 184 187 198 205 210 214 208 200 208 220 208 210
204 200 204 281 331 275 225 293 300 269 310 8 316 336 326 315 334 333 320 301 296 229 196 185 180 176 187 195 183 196 189 174 185 198 176 191 197 203 199 205 196 200 195 196 180 182 192 200 199
206 179 253 57 283 259 236 233 234 238 303 322 342 332 317 311 320 333 326 322 291 280 267 159 166 196 240 246 199 204 196 194 181 157 184 201 215 204 197 196 208 209 206 201 184 186 178 179 211
297 96 80 356 185 259 291 250 217 204 296 286 307 310 288 295 294 293 301 303 306 309 276 219 218 229 232 230 251 296 235 197 175 184 192 205 192 209 219 214 212 215 217 217 189 195 221 210 208
268 270 262 226 208 227 259 258 289 223 274 260 293 307 297 300 300 283 277 286 282 301 305 298 225 209 218 180 189 236 227 262 272 208 199 190 212 198 217 207 206 223 225 215 208 219 215 222 248